This is the latest recevied weather packets stored in our database for station/object IU7LMH-13. If no packets are shown the sender has not sent any weather packets the latest 10 day(s).
| Time | Temp. | Humidity | Pressure | Rain* | Wind** | Luminosity | Snow |
|---|---|---|---|---|---|---|---|
| 1777917099 | 18.33° C | 73% | 1016.9 hPa | 0 mm | - | - | - |
| 1777916857 | 18.33° C | 72% | 1016.9 hPa | 0 mm | - | - | - |
| 1777916618 | 18.33° C | 72% | 1016.7 hPa | 0 mm | - | - | - |
| 1777915777 | 18.89° C | 71% | 1016.6 hPa | 0 mm | - | - | - |
| 1777915179 | 18.89° C | 69% | 1016.7 hPa | 0 mm | - | - | - |
| 1777914458 | 19.44° C | 65% | 1016.7 hPa | 0 mm | - | - | - |
| 1777914098 | 19.44° C | 64% | 1016.6 hPa | 0 mm | - | - | - |
| 1777913152 | 19.44° C | 62% | 1016.5 hPa | 0 mm | - | - | - |
| 1777912541 | 20° C | 59% | 1016.7 hPa | 0 mm | - | - | - |
| 1777911578 | 20.56° C | 54% | 1016.7 hPa | 0 mm | - | - | - |
| 1777909778 | 21.67° C | 52% | 1016.5 hPa | 0 mm | - | - | - |
| 1777908818 | 22.78° C | 52% | 1016.5 hPa | 0 mm | - | - | - |
| 1777906657 | 22.78° C | 49% | 1016.5 hPa | 0 mm | - | - | - |
| 1777903542 | 23.33° C | 52% | 1016.8 hPa | 0 mm | - | - | - |
| 1777903299 | 22.78° C | 52% | 1017 hPa | 0 mm | - | - | - |
| 1777902697 | 21.11° C | 53% | 1017.2 hPa | 0 mm | - | - | - |
| 1777902345 | 21.11° C | 61% | 1017 hPa | 0 mm | - | - | - |
| 1777902097 | 20.56° C | 59% | 1017 hPa | 0 mm | - | - | - |
| 1777901979 | 20.56° C | 61% | 1017.2 hPa | 0 mm | - | - | - |
| 1777901858 | 20.56° C | 60% | 1017.2 hPa | 0 mm | - | - | - |
| 1777901148 | 21.11° C | 59% | 1017.1 hPa | 0 mm | - | - | - |
| 1777900658 | 21.67° C | 56% | 1017.2 hPa | 0 mm | - | - | - |
| 1777900298 | 22.22° C | 56% | 1017.2 hPa | 0 mm | - | - | - |
| 1777900058 | 22.22° C | 54% | 1017.4 hPa | 0 mm | - | - | - |
| 1777899942 | 22.22° C | 53% | 1017.4 hPa | 0 mm | - | - | - |
* Rain latest hour (hover to see other rain measurements)
** Current wind speed in m/s (hover to see current wind gust speed)